Marshfield, MA

5:52 PM EST on November 15, 2019 (GMT -0500)
Marshfield

Weather History for KGHG - October, 2019

Change the Weather History Date:

Monday, October 21, 2019

  Actual Average (KPYM) Record (KPYM)
Temperature  
Mean Temperature 56 °F -  
Max Temperature 60 °F 59 °F 80 °F (1984)
Min Temperature 53 °F 38 °F 22 °F (1972)
Degree Days  
Heating Degree Days 8    
Growing Degree Days 6 (Base 50)    
Moisture  
Dew Point 52 °F    
Average Humidity 82    
Maximum Humidity 94    
Minimum Humidity 68    
Precipitation  
Precipitation 0.00 in - - ()
Sea Level Pressure  
Sea Level Pressure 30.09 in    
Wind  
Wind Speed 7 mph (NE)    
Max Wind Speed 12 mph    
Max Gust Speed 18 mph    
Visibility 10 miles    
Events      
Averages and records for this station are not official NWS values.
T = Trace of Precipitation, MM = Missing Value Source: NWS Daily Summary

Daily Weather History Graph

Daily Weather History Graph

Search for Another Location

Airport or City:

Astronomy

Oct. 21, 2019 Rise Set
Actual Time 7:01 AM EDT 5:52 PM EDT
Civil Twilight 6:33 AM EDT 6:20 PM EDT
Nautical Twilight 6:00 AM EDT 6:53 PM EDT
Astronomical Twilight 5:28 AM EDT 7:25 PM EDT
Moon No Moon Rise 2:21 PM EDT (10/21)
Length of Visible Light 11h 46m
Length of Day
10h 50m
Waning Gibbous, 48% of the Moon is Illuminated
Oct 21
Waning Gibbous
Oct 27
New
Nov 4
First Quarter
Nov 12
Full
Nov 19
Last Quarter

Hourly Weather History & Observations

Time (EDT) Temp. Dew Point Humidity Pressure Visibility Wind Dir Wind Speed Gust Speed Precip Events Conditions
12:15 AM 55.4 °F 48.2 °F 77% 30.05 in 10.0 mi East 4.6 mph - N/A   Overcast
12:35 AM 55.4 °F 48.2 °F 77% 30.05 in 10.0 mi East 8.1 mph - N/A   Overcast
12:55 AM 55.4 °F 48.2 °F 77% 30.04 in 10.0 mi East 3.5 mph - N/A   Overcast
1:15 AM 55.4 °F 50.0 °F 82% 30.04 in 10.0 mi East 5.8 mph - N/A   Overcast
1:35 AM 55.4 °F 50.0 °F 82% 30.03 in 10.0 mi Variable 5.8 mph - N/A   Overcast
1:55 AM 55.4 °F 50.0 °F 82% 30.03 in 10.0 mi ENE 5.8 mph - N/A   Overcast
2:15 AM 55.4 °F 51.8 °F 88% 30.03 in 10.0 mi ENE 6.9 mph - N/A   Mostly Cloudy
2:35 AM 55.4 °F 51.8 °F 88% 30.02 in 10.0 mi East 9.2 mph - N/A   Mostly Cloudy
2:55 AM 55.4 °F 53.6 °F 94% 30.02 in 10.0 mi Variable 5.8 mph - N/A   Mostly Cloudy
3:15 AM 55.4 °F 53.6 °F 94% 30.01 in 10.0 mi ENE 6.9 mph - N/A   Overcast
3:35 AM 57.2 °F 53.6 °F 88% 30.01 in 10.0 mi ENE 4.6 mph - N/A   Overcast
3:55 AM 57.2 °F 53.6 °F 88% 30.03 in 10.0 mi Calm Calm - N/A   Overcast
4:15 AM 57.2 °F 53.6 °F 88% 30.01 in 10.0 mi East 9.2 mph - N/A   Overcast
4:35 AM 57.2 °F 55.4 °F 94% 30.02 in 10.0 mi ENE 8.1 mph - N/A   Overcast
4:55 AM 57.2 °F 55.4 °F 94% 30.02 in 10.0 mi ENE 8.1 mph 15.0 mph N/A   Overcast
5:15 AM 57.2 °F 53.6 °F 88% 30.04 in 10.0 mi NE 8.1 mph - N/A   Overcast
5:35 AM 57.2 °F 53.6 °F 88% 30.04 in 10.0 mi ENE 8.1 mph - N/A   Mostly Cloudy
5:55 AM 57.2 °F 55.4 °F 94% 30.04 in 10.0 mi NE 9.2 mph - N/A   Overcast
6:35 AM 57.2 °F 55.4 °F 94% 30.05 in 10.0 mi NE 6.9 mph - N/A   Overcast
6:55 AM 57.2 °F 53.6 °F 88% 30.05 in 10.0 mi NE 6.9 mph 13.8 mph N/A   Overcast
7:15 AM 55.4 °F 53.6 °F 94% 30.06 in 10.0 mi NE 8.1 mph - N/A   Mostly Cloudy
7:35 AM 55.4 °F 53.6 °F 94% 30.07 in 10.0 mi NE 6.9 mph 12.7 mph N/A   Scattered Clouds
7:55 AM 57.2 °F 53.6 °F 88% 30.08 in 10.0 mi Variable 6.9 mph - N/A   Mostly Cloudy
8:15 AM 57.2 °F 53.6 °F 88% 30.08 in 10.0 mi NE 10.4 mph - N/A   Overcast
8:35 AM 57.2 °F 53.6 °F 88% 30.08 in 10.0 mi NE 9.2 mph 16.1 mph N/A   Overcast
8:55 AM 57.2 °F 53.6 °F 88% 30.08 in 10.0 mi NE 9.2 mph 16.1 mph N/A   Overcast
9:15 AM 57.2 °F 53.6 °F 88% 30.08 in 10.0 mi ENE 10.4 mph - N/A   Overcast
9:35 AM 59.0 °F 53.6 °F 82% 30.07 in - NE 10.4 mph - N/A   Unknown
9:55 AM 59.0 °F 53.6 °F 82% 30.08 in 10.0 mi NE 8.1 mph 18.4 mph N/A   Unknown
10:15 AM 59.0 °F 51.8 °F 77% 30.07 in 10.0 mi NE 10.4 mph 18.4 mph N/A   Scattered Clouds
10:35 AM 60.8 °F 51.8 °F 72% 30.07 in 10.0 mi NE 8.1 mph 15.0 mph N/A   Mostly Cloudy
10:55 AM 59.0 °F 51.8 °F 77% 30.07 in 10.0 mi NE 11.5 mph 18.4 mph N/A   Scattered Clouds
11:15 AM 59.0 °F 51.8 °F 77% 30.08 in 10.0 mi NE 10.4 mph - N/A   Scattered Clouds
11:35 AM 60.8 °F 51.8 °F 72% 30.09 in 10.0 mi NE 8.1 mph 13.8 mph N/A   Mostly Cloudy
11:55 AM 60.8 °F 51.8 °F 72% 30.09 in 10.0 mi NE 10.4 mph 16.1 mph N/A   Scattered Clouds
12:15 PM 59.0 °F 51.8 °F 77% 30.10 in 10.0 mi NNE 9.2 mph 16.1 mph N/A   Mostly Cloudy
12:35 PM 60.8 °F 51.8 °F 72% 30.11 in 10.0 mi Variable 6.9 mph 17.3 mph N/A   Mostly Cloudy
12:55 PM 60.8 °F 51.8 °F 72% 30.10 in 10.0 mi NE 6.9 mph 17.3 mph N/A   Scattered Clouds
1:15 PM 59.0 °F 51.8 °F 77% 30.10 in 10.0 mi NE 8.1 mph 16.1 mph N/A   Mostly Cloudy
1:35 PM 60.8 °F 51.8 °F 72% 30.10 in 10.0 mi NE 10.4 mph - N/A   Scattered Clouds
1:55 PM 59.0 °F 50.0 °F 72% 30.09 in 10.0 mi Variable 6.9 mph 13.8 mph N/A   Partly Cloudy
2:15 PM 60.8 °F 50.0 °F 68% 30.10 in 10.0 mi NNE 8.1 mph 15.0 mph N/A   Partly Cloudy
2:35 PM 60.8 °F 50.0 °F 68% 30.09 in 10.0 mi NE 10.4 mph - N/A   Partly Cloudy
2:55 PM 59.0 °F 50.0 °F 72% 30.09 in 10.0 mi NNE 8.1 mph 16.1 mph N/A   Partly Cloudy
3:15 PM 59.0 °F 51.8 °F 77% 30.09 in 10.0 mi NE 8.1 mph 15.0 mph N/A   Partly Cloudy
3:35 PM 59.0 °F 51.8 °F 77% 30.09 in 10.0 mi NNE 10.4 mph - N/A   Partly Cloudy
3:55 PM 59.0 °F 51.8 °F 77% 30.09 in 10.0 mi NNE 8.1 mph 13.8 mph N/A   Scattered Clouds
4:15 PM 59.0 °F 50.0 °F 72% 30.10 in 10.0 mi NE 6.9 mph 15.0 mph N/A   Partly Cloudy
4:35 PM 59.0 °F 51.8 °F 77% 30.10 in 10.0 mi Variable 5.8 mph 11.5 mph N/A   Clear
4:55 PM 57.2 °F 51.8 °F 82% 30.11 in 10.0 mi Variable 6.9 mph - N/A   Clear
5:15 PM 57.2 °F 51.8 °F 82% 30.11 in 10.0 mi Calm Calm - N/A   Clear
5:35 PM 57.2 °F 51.8 °F 82% 30.12 in 10.0 mi Variable 3.5 mph - N/A   Clear
5:55 PM 55.4 °F 50.0 °F 82% 30.13 in 10.0 mi Calm Calm - N/A   Clear
6:15 PM 55.4 °F 50.0 °F 82% 30.13 in 10.0 mi Variable 4.6 mph - N/A   Clear
6:35 PM 55.4 °F 51.8 °F 88% 30.13 in 10.0 mi Variable 5.8 mph - N/A   Clear
6:55 PM 55.4 °F 50.0 °F 82% 30.13 in 10.0 mi Variable 6.9 mph - N/A   Clear
7:15 PM 55.4 °F 50.0 °F 82% 30.13 in 10.0 mi NE 8.1 mph - N/A   Clear
7:35 PM 55.4 °F 50.0 °F 82% 30.15 in 10.0 mi NE 8.1 mph - N/A   Clear
7:55 PM 55.4 °F 50.0 °F 82% 30.15 in 10.0 mi NE 8.1 mph - N/A   Clear
8:15 PM 55.4 °F 50.0 °F 82% 30.15 in 10.0 mi ENE 8.1 mph - N/A   Clear
8:35 PM 55.4 °F 50.0 °F 82% 30.15 in 10.0 mi ENE 6.9 mph - N/A   Clear
8:55 PM 55.4 °F 50.0 °F 82% 30.15 in 10.0 mi ENE 8.1 mph - N/A   Clear
9:15 PM 55.4 °F 51.8 °F 88% 30.15 in 10.0 mi ENE 5.8 mph - N/A   Clear
9:35 PM 55.4 °F 50.0 °F 82% 30.16 in 10.0 mi Variable 4.6 mph - N/A   Clear
9:55 PM 55.4 °F 50.0 °F 82% 30.16 in 10.0 mi Variable 4.6 mph - N/A   Clear
10:15 PM 53.6 °F 50.0 °F 88% 30.16 in 10.0 mi NE 6.9 mph - N/A   Clear
10:35 PM 55.4 °F 50.0 °F 82% 30.16 in 10.0 mi NE 3.5 mph - N/A   Clear
10:55 PM 55.4 °F 50.0 °F 82% 30.16 in 10.0 mi NE 4.6 mph - N/A   Clear
11:15 PM 55.4 °F 50.0 °F 82% 30.15 in 10.0 mi NE 5.8 mph - N/A   Clear
11:35 PM 53.6 °F 50.0 °F 88% 30.16 in 10.0 mi Variable 3.5 mph - N/A   Clear
11:55 PM 53.6 °F 50.0 °F 88% 30.15 in 9.0 mi NE 5.8 mph - N/A   Clear